Regional Weather Roundup
Issued by NWS

Home | Current Version | Previous Version | Text Only | Print | Product List | Glossary Off
Versions: 1 2 3 4 5 6 7 8 9 10 11 12 13 14 15 16 17 18 19 20 21 22 23 24 25 26 27

000
ASUS45 KCYS 251810
RWRWY

WYOMING REGIONAL WEATHER ROUNDUP
NATIONAL WEATHER SERVICE CHEYENNE WY
1100 AM MST SAT FEB 25 2017

NOTE:  "FAIR" INDICATES FEW OR NO CLOUDS BELOW 12,000 FEET
WITH NO SIGNIFICANT WEATHER AND/OR OBSTRUCTIONS TO VISIBILITY.

WYZ001-251900-
YELLOWSTONE NATIONAL PARK

CITY           SKY/WX    TMP DP  RH WIND       PRES   REMARKS
LK YELLOWSTONE   N/A     11   3  70 VRB7      29.78F WCI   0
6HR MIN TEMP:   0; 6HR MAX TEMP:  11; 6HR PCP:  0.01;

W YELLOWSTONE  NOT AVBL

$$
WYZ002>013-054>058-071-098>099-251900-
NORTHERN WYOMING

CITY           SKY/WX    TMP DP  RH WIND       PRES   REMARKS
JACKSON        CLOUDY    16   9  73 S23       29.88F WCI  -2
CODY           FAIR      26   3  37 SW18G28   29.82F WCI  13
GREYBULL       FAIR      28  17  63 S7        29.86F WCI  21
6HR MIN TEMP:  22; 6HR MAX TEMP:  28;

WORLAND        FAIR      26  17  68 CALM      29.87F
6HR MIN TEMP:  13; 6HR MAX TEMP:  26;

SHERIDAN       PTSUNNY   25  16  68 MISG      29.82F
6HR MIN TEMP:  18; 6HR MAX TEMP:  26;

BUFFALO        PTSUNNY   23  16  74 S10       29.79F WCI  12
6HR MIN TEMP:  12; 6HR MAX TEMP:  23;

GILLETTE       CLOUDY    24  18  77 SW10      29.82F WCI  14
6HR MIN TEMP:  18; 6HR MAX TEMP:  25;

HULETT         MOCLDY    28  16  59 MISG      29.82F
NEWCASTLE      MOCLDY    23  18  80 S9        29.87F WCI  13

$$
WYZ014>020-022>026-101>103-251900-
CENTRAL WYOMING

CITY           SKY/WX    TMP DP  RH WIND       PRES   REMARKS
BIG PINEY      CLOUDY     2  -5  72 E6        29.91F WCI  -9
6HR MIN TEMP: -11; 6HR MAX TEMP:   2;

PINEDALE       FAIR       3  -6  66 N6        29.91F WCI  -8
DUBOIS         FAIR      16   1  53 W18G29    29.76F WCI  -1
LANDER         FAIR       9   3  77 CALM      29.85F
6HR MIN TEMP:  -2; 6HR MAX TEMP:  16;

RIVERTON       FAIR      18   5  57 W9        29.86F WCI   7
6HR MIN TEMP:   5; 6HR MAX TEMP:  19;

CASPER         FAIR      15   6  67 SW22      29.85F WCI  -3
6HR MIN TEMP:  10; 6HR MAX TEMP:  16;

DOUGLAS        PTSUNNY   14   7  73 E5        29.87F WCI   6
6HR MIN TEMP:  -2; 6HR MAX TEMP:  16;


$$
WYZ021-027>030-104>119-251900-
SOUTHERN WYOMING

CITY           SKY/WX    TMP DP  RH WIND       PRES   REMARKS
EVANSTON       FAIR      13   5  70 SW16      29.94F WCI  -3
6HR MIN TEMP:   0; 6HR MAX TEMP:  13;

FORT BRIDGER   FAIR      18  10  69 W24       29.96S WCI   1
ROCK SPRINGS   PTSUNNY   14   3  61 W17       29.93F WCI  -3
6HR MIN TEMP:   3; 6HR MAX TEMP:  14;

DIXON            N/A     21  11  64 SW18      29.98S WCI   6
RAWLINS        PTSUNNY   14   6  70 SW22      29.88S WCI  -4
6HR MIN TEMP:   4; 6HR MAX TEMP:  14;

SARATOGA       MOCLDY    18   5  57 S7        29.90F WCI   8
LARAMIE        CLOUDY    17   5  59 SW18      29.82F WCI   1
6HR MIN TEMP:   4; 6HR MAX TEMP:  17;

CHEYENNE       FAIR      23   5  46 W21G29    29.85F WCI   8
6HR MIN TEMP:   7; 6HR MAX TEMP:  23;

TORRINGTON     FAIR      19   8  62 N3        29.91F
6HR MIN TEMP:  -3; 6HR MAX TEMP:  19;

PINE BLUFFS    FAIR      23   9  54 NW8       29.91F WCI  14

$$




USA.gov is the U.S. government's official web portal to all federal, state and local government web resources and services.